EW6572 Weather Reports


Display with metric or nautical units.
time (UTC)temp
F
wind
direction
speed
MPH
gust
MPH
rain 1hr
in
rain 24hr
in
rain mn
in
humidity
%
barometer
mb
20210620133953 72 313 1.0 4.0 0.00 0.00 0.00 84 1011.4
20210620133451 71 72 1.0 3.0 0.00 0.00 0.00 82 1011.4
20210620132949 71 63 2.0 4.0 0.00 0.00 0.00 83 1011.4
20210620132449 71 47 2.0 4.0 0.00 0.00 0.00 82 1011.6
20210620131947 71 355 1.0 3.0 0.00 0.00 0.00 83 1011.7
20210620131446 71 15 1.0 3.0 0.00 0.00 0.00 85 1011.7
20210620130940 71 46 1.0 2.0 0.00 0.00 0.00 85 1011.7
20210620130429 71 81 1.0 3.0 0.00 0.00 0.00 84 1011.8
20210620125930 71 108 2.0 3.0 0.00 0.00 0.00 85 1011.8
20210620125420 71 40 1.0 3.0 0.00 0.00 0.00 83 1011.8
20210620124917 71 355 1.0 3.0 0.00 0.00 0.00 84 1011.8
20210620124418 70 40 1.0 3.0 0.00 0.00 0.00 84 1011.9
20210620123917 70 78 1.0 3.0 0.00 0.00 0.00 85 1011.8
20210620123418 70 40 1.0 3.0 0.00 0.00 0.00 86 1011.8
20210620122908 70 213 1.0 3.0 0.00 0.00 0.00 87 1011.8
20210620122400 69 37 1.0 3.0 0.00 0.00 0.00 87 1011.8
20210620121854 69 79 1.0 3.0 0.00 0.00 0.00 86 1011.7
20210620121351 69 44 1.0 4.0 0.00 0.00 0.00 88 1011.7
20210620120856 69 44 2.0 4.0 0.00 0.00 0.00 87 1011.7
20210620120348 69 102 2.0 4.0 0.00 0.00 0.00 87 1011.6
20210620115849 69 342 2.0 4.0 0.00 0.00 0.00 87 1011.4
20210620115349 69 108 2.0 3.0 0.00 0.00 0.00 88 1011.6
20210620114848 68 341 1.0 3.0 0.00 0.00 0.00 89 1011.4
20210620114346 68 291 0.0 2.0 0.00 0.00 0.00 88 1011.6
20210620113850 68 185 0.0 2.0 0.00 0.00 0.00 89 1011.6
20210620113338 67 328 1.0 2.0 0.00 0.00 0.00 90 1011.6
20210620112823 67 0 0.0 1.0 0.00 0.00 0.00 89 1011.8
20210620112322 67 355 0.0 3.0 0.00 0.00 0.00 89 1011.5
20210620111804 67 336 1.0 3.0 0.00 0.00 0.00 89 1011.5
20210620111251 67 0 1.0 2.0 0.00 0.00 0.00 89 1011.4
20210620110751 67 24 0.0 2.0 0.00 0.00 0.00 89 1011.3
20210620110249 67 199 0.0 1.0 0.00 0.00 0.00 89 1011.1
20210620105749 67 280 0.0 1.0 0.00 0.00 0.00 89 1010.9
20210620105248 67 16 0.0 2.0 0.00 0.00 0.00 90 1010.7
20210620104750 67 140 0.0 2.0 0.00 0.00 0.00 89 1010.7
20210620104246 67 338 1.0 2.0 0.00 0.00 0.00 90 1010.6
20210620103738 67 342 1.0 2.0 0.00 0.00 0.00 90 1010.4
20210620103234 67 213 0.0 2.0 0.00 0.00 0.00 90 1010.4
20210620102722 67 133 0.0 1.0 0.00 0.00 0.00 90 1010.5
20210620102208 66 218 0.0 1.0 0.00 0.00 0.00 90 1010.6
20210620101706 66 119 0.0 1.0 0.00 0.00 0.00 90 1010.8
20210620101156 66 211 0.0 1.0 0.00 0.00 0.00 89 1011.1
20210620100653 66 252 0.0 1.0 0.00 0.00 0.00 91 1011.1
20210620100153 66 252 0.0 1.0 0.00 0.00 0.00 91 1011.3
20210620095653 66 252 0.0 1.0 0.00 0.00 0.00 91 1011.4
20210620095154 66 252 0.0 0.0 0.00 0.00 0.00 90 1011.4
20210620094648 66 252 0.0 0.0 0.00 0.00 0.00 90 1011.4
20210620094138 66 252 0.0 0.0 0.00 0.00 0.00 90 1011.4
20210620093602 66 252 0.0 1.0 0.00 0.00 0.00 90 1011.4
20210620093053 66 252 0.0 1.0 0.00 0.00 0.00 90 1011.4
20210620092550 66 252 0.0 1.0 0.00 0.00 0.00 90 1011.4
20210620092053 66 252 0.0 1.0 0.00 0.00 0.00 91 1011.4
20210620091542 66 252 0.0 1.0 0.00 0.00 0.00 91 1011.3
20210620091038 66 252 0.0 1.0 0.00 0.00 0.00 91 1011.4
20210620090530 66 252 0.0 0.0 0.00 0.00 0.00 90 1011.5
20210620090021 66 252 0.0 0.0 0.00 0.00 0.00 90 1011.5
20210620085457 66 252 0.0 0.0 0.00 0.00 0.00 90 1011.6
20210620084942 66 252 0.0 1.0 0.00 0.00 0.00 89 1011.6
20210620084442 66 252 0.0 1.0 0.00 0.00 0.00 89 1011.6
20210620083926 66 252 0.0 1.0 0.00 0.00 0.00 88 1011.6
20210620083427 66 252 0.0 1.0 0.00 0.00 0.00 88 1011.6
20210620082853 66 252 0.0 1.0 0.00 0.00 0.00 88 1011.6
20210620082355 67 252 0.0 2.0 0.00 0.00 0.00 88 1011.6
20210620081834 67 252 0.0 2.0 0.00 0.00 0.00 87 1011.6
20210620081327 67 252 0.0 1.0 0.00 0.00 0.00 86 1011.6
20210620080817 67 252 0.0 1.0 0.00 0.00 0.00 85 1011.7
20210620080313 67 252 0.0 1.0 0.00 0.00 0.00 85 1011.9
20210620075814 68 252 0.0 1.0 0.00 0.00 0.00 85 1012.0
20210620075307 68 252 1.0 2.0 0.00 0.00 0.00 85 1012.0
20210620074800 68 252 1.0 2.0 0.00 0.00 0.00 84 1012.1
20210620074253 68 249 0.0 2.0 0.00 0.00 0.00 84 1012.1
20210620073749 68 249 1.0 6.0 0.00 0.00 0.00 83 1012.2
20210620073248 68 224 1.0 6.0 0.00 0.00 0.00 83 1012.3
20210620072747 68 294 2.0 9.0 0.00 0.00 0.00 83 1012.1
20210620072246 68 221 2.0 9.0 0.00 0.00 0.00 84 1012.2
20210620071744 68 178 2.0 6.0 0.00 0.00 0.00 85 1012.1
20210620071243 68 123 2.0 7.0 0.00 0.00 0.00 84 1012.3
20210620070743 67 52 2.0 7.0 0.00 0.00 0.00 85 1012.2
20210620070242 67 259 0.0 7.0 0.00 0.00 0.00 88 1012.5
20210620065741 67 209 0.0 2.0 0.00 0.00 0.00 86 1012.5
20210620065241 67 209 0.0 0.0 0.00 0.00 0.00 87 1012.4
20210620064706 67 209 0.0 1.0 0.00 0.00 0.00 87 1012.4
20210620064204 67 209 0.0 1.0 0.00 0.00 0.00 87 1012.5
20210620063651 67 209 0.0 1.0 0.00 0.00 0.00 86 1012.5
20210620063151 67 209 0.0 0.0 0.00 0.00 0.00 87 1012.5
20210620062650 67 209 0.0 0.0 0.00 0.00 0.00 87 1012.4
20210620062141 67 209 0.0 0.0 0.00 0.00 0.00 87 1012.3
20210620061632 67 209 0.0 0.0 0.00 0.00 0.00 87 1012.4
20210620061130 68 209 1.0 4.0 0.00 0.00 0.00 86 1012.2
20210620060601 68 209 1.0 5.0 0.00 0.00 0.00 86 1012.3
20210620060054 68 266 1.0 5.0 0.00 0.00 0.00 86 1012.3
20210620055546 68 191 1.0 3.0 0.00 0.00 0.00 86 1012.3
20210620055044 68 181 1.0 2.0 0.00 0.00 0.00 85 1012.1
20210620054529 68 192 1.0 2.0 0.00 0.00 0.00 85 1012.1
20210620054024 68 234 0.0 2.0 0.00 0.00 0.00 86 1012.1
20210620053514 68 234 0.0 1.0 0.00 0.00 0.00 86 1012.1
20210620052949 68 234 0.0 2.0 0.00 0.00 0.00 86 1012.1
20210620052446 68 239 0.0 2.0 0.00 0.00 0.00 85 1012.1
20210620051942 68 223 0.0 2.0 0.00 0.00 0.00 85 1012.0
20210620051430 68 244 0.0 1.0 0.00 0.00 0.00 84 1012.1
20210620050905 68 244 0.0 0.0 0.00 0.00 0.00 84 1012.1
20210620050404 69 244 0.0 0.0 0.00 0.00 0.00 83 1012.1
20210620045849 69 244 0.0 1.0 0.00 0.00 0.00 83 1012.1
20210620045348 69 244 0.0 1.0 0.00 0.00 0.00 83 1012.0
20210620044833 69 244 0.0 1.0 0.00 0.00 0.00 83 1011.9
20210620044326 69 244 0.0 3.0 0.00 0.00 0.00 82 1012.0
20210620043818 70 215 1.0 3.0 0.00 0.00 0.00 82 1012.1
20210620043304 70 195 1.0 3.0 0.00 0.00 0.00 81 1012.1
20210620042754 70 227 1.0 3.0 0.00 0.00 0.00 81 1012.2
20210620042254 70 194 1.0 3.0 0.00 0.00 0.00 82 1012.3
20210620041749 70 227 0.0 3.0 0.00 0.00 0.00 82 1012.3
20210620041249 70 190 0.0 2.0 0.00 0.00 0.00 82 1012.5
20210620040741 70 222 0.0 2.0 0.00 0.00 0.00 81 1012.4
20210620040234 70 208 0.0 2.0 0.00 0.00 0.00 81 1012.4
20210620035711 70 208 0.0 2.0 0.00 0.00 0.00 80 1012.3
20210620035155 71 215 0.0 1.0 0.00 0.00 0.00 79 1012.4
20210620034655 71 225 0.0 2.0 0.00 0.00 0.00 79 1012.3
20210620034155 71 249 0.0 2.0 0.00 0.00 0.00 78 1012.2
20210620033653 72 249 0.0 2.0 0.00 0.00 0.00 77 1012.3
20210620033154 72 205 1.0 3.0 0.00 0.00 0.00 76 1012.4
20210620032646 72 177 2.0 5.0 0.00 0.00 0.00 76 1012.4
20210620032135 73 165 2.0 6.0 0.00 0.00 0.00 76 1012.3
20210620031631 73 207 2.0 6.0 0.00 0.00 0.00 76 1012.4
20210620031124 73 268 3.0 6.0 0.00 0.00 0.00 76 1012.5
20210620030624 73 194 3.0 10.0 0.00 0.00 0.00 76 1012.6
20210620030118 73 237 3.0 10.0 0.00 0.00 0.00 77 1012.5
20210620025618 73 228 3.0 6.0 0.00 0.00 0.00 77 1012.5
20210620025118 73 227 4.0 9.0 0.00 0.00 0.00 77 1012.5
20210620024612 74 216 4.0 12.0 0.00 0.00 0.00 76 1012.4
20210620024113 74 170 5.0 12.0 0.00 0.00 0.00 76 1012.4
20210620023610 74 219 5.0 12.0 0.00 0.00 0.00 77 1012.3
20210620023109 74 194 4.0 12.0 0.00 0.00 0.00 77 1012.3
20210620022610 74 196 4.0 14.0 0.00 0.00 0.00 78 1012.2
20210620022106 74 186 5.0 14.0 0.00 0.00 0.00 78 1012.1
20210620021605 74 187 4.0 13.0 0.00 0.00 0.00 78 1012.1
20210620021107 74 194 4.0 13.0 0.00 0.00 0.00 79 1012.1
20210620020603 74 265 4.0 9.0 0.00 0.00 0.00 79 1012.0
20210620020102 74 227 4.0 10.0 0.00 0.00 0.00 79 1011.9
20210620015603 75 220 4.0 10.0 0.00 0.00 0.00 79 1011.8
20210620015053 75 241 4.0 10.0 0.00 0.00 0.00 79 1011.7
20210620014554 75 221 3.0 10.0 0.00 0.00 0.00 79 1011.6
20210620014054 75 177 2.0 6.0 0.00 0.00 0.00 79 1011.6
20210620013555 75 279 2.0 11.0 0.00 0.00 0.00 79 1011.6
20210620013053 75 190 2.0 11.0 0.00 0.00 0.00 79 1011.6
20210620012554 75 209 2.0 5.0 0.00 0.00 0.00 78 1011.4
20210620012037 75 196 1.0 5.0 0.00 0.00 0.00 78 1011.4
20210620011538 75 213 1.0 4.0 0.00 0.00 0.00 78 1011.3
20210620011037 76 211 0.0 4.0 0.00 0.00 0.00 77 1011.3
20210620010536 76 182 1.0 3.0 0.00 0.00 0.00 76 1011.2
20210620010030 76 182 1.0 3.0 0.00 0.00 0.00 75 1011.2
20210620005522 77 194 1.0 4.0 0.00 0.00 0.00 75 1011.2
20210620005013 77 192 1.0 4.0 0.00 0.00 0.00 73 1011.2
20210620004502 77 192 1.0 3.0 0.00 0.00 0.00 73 1011.2
20210620004002 77 282 1.0 5.0 0.00 0.00 0.00 73 1011.2
20210620003502 78 211 1.0 5.0 0.00 0.00 0.00 72 1011.2
20210620002953 78 258 2.0 5.0 0.00 0.00 0.00 72 1010.9
20210620002452 78 200 2.0 5.0 0.00 0.00 0.00 72 1011.1
20210620001952 78 236 2.0 5.0 0.00 0.00 0.00 71 1010.9
20210620001452 78 305 3.0 6.0 0.00 0.00 0.00 71 1010.8
20210620000949 78 167 3.0 7.0 0.00 0.00 0.00 70 1010.8
20210620000449 79 249 3.0 7.0 0.00 0.00 0.00 70 1010.6
20210619235947 79 168 3.0 9.0 0.00 0.00 0.00 71 1010.7
20210619235448 79 255 3.0 9.0 0.00 0.00 0.00 69 1010.7
20210619234941 79 178 3.0 7.0 0.00 0.00 0.00 69 1010.6
20210619234439 80 313 3.0 7.0 0.00 0.00 0.00 69 1010.6
20210619233937 80 238 3.0 6.0 0.00 0.00 0.00 68 1010.7
20210619233435 80 194 2.0 6.0 0.00 0.00 0.00 69 1010.7
20210619232936 80 218 2.0 6.0 0.00 0.00 0.00 68 1010.6
20210619232430 80 190 2.0 6.0 0.00 0.00 0.00 67 1010.5
20210619231928 80 185 2.0 6.0 0.00 0.00 0.00 66 1010.6
20210619231428 80 185 1.0 5.0 0.00 0.00 0.00 66 1010.4
20210619230926 80 146 2.0 9.0 0.00 0.00 0.00 67 1010.5
20210619230423 81 144 3.0 9.0 0.00 0.00 0.00 66 1010.5
20210619225920 81 237 3.0 7.0 0.00 0.00 0.00 66 1010.5
20210619225419 81 274 3.0 8.0 0.00 0.00 0.00 65 1010.3
20210619224915 81 247 4.0 10.0 0.00 0.00 0.00 65 1010.3
20210619224412 81 169 3.0 11.0 0.00 0.00 0.00 64 1010.3
20210619223911 81 185 2.0 11.0 0.00 0.00 0.00 66 1010.2
20210619223407 81 181 2.0 7.0 0.00 0.00 0.00 64 1010.3
20210619222904 81 165 1.0 7.0 0.00 0.00 0.00 64 1010.3
20210619222402 81 145 1.0 2.0 0.00 0.00 0.00 63 1010.2
20210619221901 82 160 1.0 2.0 0.00 0.00 0.00 61 1010.4
20210619221403 83 182 1.0 5.0 0.00 0.00 0.00 60 1010.5
20210619220855 83 185 1.0 5.0 0.00 0.00 0.00 58 1010.8
20210619220356 83 217 2.0 5.0 0.00 0.00 0.00 61 1010.8
20210619215853 83 196 2.0 5.0 0.00 0.00 0.00 56 1010.7
20210619215352 83 178 2.0 9.0 0.00 0.00 0.00 58 1010.6
20210619214847 83 220 2.0 9.0 0.00 0.00 0.00 57 1010.6
20210619214342 83 191 3.0 7.0 0.00 0.00 0.00 59 1010.5
20210619213839 84 166 3.0 7.0 0.00 0.00 0.00 57 1010.6
20210619213338 84 133 3.0 7.0 0.00 0.00 0.00 53 1010.6
20210619212835 84 210 3.0 7.0 0.00 0.00 0.00 56 1010.4
20210619212335 85 228 2.0 5.0 0.00 0.00 0.00 53 1010.6
20210619211830 85 162 2.0 7.0 0.00 0.00 0.00 53 1010.5
20210619211328 85 173 3.0 10.0 0.00 0.00 0.00 50 1010.5
20210619210825 86 148 4.0 13.0 0.00 0.00 0.00 49 1010.6
20210619210323 87 167 4.0 13.0 0.00 0.00 0.00 50 1010.5
20210619205823 87 183 4.0 10.0 0.00 0.00 0.00 49 1010.7
20210619205317 88 181 5.0 13.0 0.00 0.00 0.00 48 1010.7
20210619204815 88 140 5.0 15.0 0.00 0.00 0.00 49 1010.7
20210619204313 88 278 5.0 15.0 0.00 0.00 0.00 47 1010.9
20210619203812 88 195 4.0 10.0 0.00 0.00 0.00 48 1011.2
20210619203311 88 248 5.0 10.0 0.00 0.00 0.00 47 1011.4
20210619202805 88 188 4.0 11.0 0.00 0.00 0.00 47 1011.4
20210619202306 88 165 4.0 11.0 0.00 0.00 0.00 48 1011.4
20210619201801 87 258 4.0 9.0 0.00 0.00 0.00 47 1011.6
20210619201259 87 210 4.0 9.0 0.00 0.00 0.00 47 1011.6
20210619200758 87 177 4.0 10.0 0.00 0.00 0.00 50 1011.6
20210619200256 87 234 5.0 10.0 0.00 0.00 0.00 50 1011.7
20210619195751 87 202 4.0 10.0 0.00 0.00 0.00 48 1011.7
20210619195249 87 318 3.0 9.0 0.00 0.00 0.00 51 1011.8
20210619194747 87 170 4.0 9.0 0.00 0.00 0.00 50 1011.8
20210619194248 87 255 4.0 11.0 0.00 0.00 0.00 48 1011.9
20210619193741 88 200 4.0 11.0 0.00 0.00 0.00 47 1011.9
20210619193239 88 208 4.0 9.0 0.00 0.00 0.00 49 1012.0
20210619192738 88 223 4.0 9.0 0.00 0.00 0.00 46 1012.0
20210619192237 88 216 3.0 9.0 0.00 0.00 0.00 50 1012.1
20210619191735 88 240 2.0 9.0 0.00 0.00 0.00 48 1012.0
20210619191229 88 155 3.0 9.0 0.00 0.00 0.00 51 1012.3
20210619190728 87 290 3.0 9.0 0.00 0.00 0.00 51 1012.4
20210619190228 87 200 4.0 7.0 0.00 0.00 0.00 46 1012.4
20210619185723 87 223 4.0 12.0 0.00 0.00 0.00 44 1012.5
20210619185223 88 228 4.0 12.0 0.00 0.00 0.00 45 1012.4
20210619184717 88 238 4.0 10.0 0.00 0.00 0.00 44 1012.3
20210619184215 88 209 4.0 12.0 0.00 0.00 0.00 45 1012.4
20210619183713 88 227 4.0 12.0 0.00 0.00 0.00 48 1012.4
20210619183211 88 5 4.0 11.0 0.00 0.00 0.00 49 1012.5
20210619182711 87 11 4.0 11.0 0.00 0.00 0.00 48 1012.5
20210619182205 88 257 5.0 12.0 0.00 0.00 0.00 46 1012.7
20210619181703 87 246 7.0 12.0 0.00 0.00 0.00 47 1012.8
20210619181202 87 301 6.0 13.0 0.00 0.00 0.00 46 1012.7
20210619180659 87 259 5.0 15.0 0.00 0.00 0.00 47 1013.0
20210619180200 87 223 6.0 15.0 0.00 0.00 0.00 50 1013.1
20210619175653 87 258 6.0 13.0 0.00 0.00 0.00 51 1013.3
20210619175154 87 219 5.0 14.0 0.00 0.00 0.00 52 1013.5
20210619174653 87 238 5.0 14.0 0.00 0.00 0.00 49 1013.5
20210619174154 87 249 4.0 11.0 0.00 0.00 0.00 51 1013.6
20210619173653 86 220 4.0 11.0 0.00 0.00 0.00 52 1013.6
20210619173153 86 224 4.0 12.0 0.00 0.00 0.00 51 1013.5
20210619172647 86 226 5.0 13.0 0.00 0.00 0.00 50 1013.5
20210619172150 86 209 6.0 13.0 0.00 0.00 0.00 50 1013.6
20210619171645 86 205 5.0 13.0 0.00 0.00 0.00 50 1013.6
20210619171140 87 229 5.0 13.0 0.00 0.00 0.00 52 1013.7
20210619170641 87 200 5.0 13.0 0.00 0.00 0.00 48 1013.6
20210619170135 87 200 4.0 12.0 0.00 0.00 0.00 48 1013.7
20210619165635 87 213 3.0 12.0 0.00 0.00 0.00 50 1013.6
20210619165132 88 275 2.0 7.0 0.00 0.00 0.00 47 1013.6
20210619164631 87 355 2.0 5.0 0.00 0.00 0.00 49 1013.6
20210619164130 87 308 2.0 4.0 0.00 0.00 0.00 50 1013.7
20210619163625 87 307 2.0 4.0 0.00 0.00 0.00 53 1013.8
20210619163126 86 348 2.0 9.0 0.00 0.00 0.00 54 1013.7
20210619162624 86 196 3.0 9.0 0.00 0.00 0.00 55 1013.8
20210619162117 86 90 4.0 9.0 0.00 0.00 0.00 57 1013.8
20210619161618 85 22 4.0 9.0 0.00 0.00 0.00 55 1013.8
20210619161111 85 313 2.0 5.0 0.00 0.00 0.00 58 1013.8
20210619160611 85 233 2.0 5.0 0.00 0.00 0.00 56 1014.0
20210619160112 85 283 2.0 5.0 0.00 0.00 0.00 59 1013.8
20210619155611 85 227 2.0 4.0 0.00 0.00 0.00 57 1013.7
20210619155110 84 230 2.0 6.0 0.00 0.00 0.00 61 1013.8
20210619154559 84 253 3.0 6.0 0.00 0.00 0.00 58 1013.8
20210619154057 84 281 3.0 6.0 0.00 0.00 0.00 56 1013.8
20210619153556 84 313 3.0 6.0 0.00 0.00 0.00 61 1013.8
20210619153055 84 234 2.0 5.0 0.00 0.00 0.00 60 1013.7
20210619152554 83 285 3.0 5.0 0.00 0.00 0.00 57 1013.8
20210619152047 83 167 3.0 6.0 0.00 0.00 0.00 57 1014.0
20210619151546 83 186 3.0 7.0 0.00 0.00 0.00 60 1014.0
20210619151047 83 226 3.0 9.0 0.00 0.00 0.00 61 1014.1
20210619150548 82 252 4.0 9.0 0.00 0.00 0.00 63 1014.1
20210619150047 82 223 4.0 9.0 0.00 0.00 0.00 59 1014.1
20210619145548 82 174 3.0 8.0 0.00 0.00 0.00 60 1014.2
20210619145044 82 241 3.0 8.0 0.00 0.00 0.00 60 1014.3
20210619144544 81 120 2.0 6.0 0.00 0.00 0.00 65 1014.3
20210619144041 81 192 2.0 6.0 0.00 0.00 0.00 62 1014.3
20210619143541 80 208 3.0 9.0 0.00 0.00 0.00 67 1014.4
20210619143041 80 215 3.0 9.0 0.00 0.00 0.00 63 1014.4
20210619142542 80 205 3.0 6.0 0.00 0.00 0.00 66 1014.5
20210619142035 80 226 3.0 5.0 0.00 0.00 0.00 67 1014.6
20210619141533 79 194 3.0 11.0 0.00 0.00 0.00 65 1014.5
20210619141032 79 180 4.0 13.0 0.00 0.00 0.00 66 1014.4
20210619140529 79 190 4.0 13.0 0.00 0.00 0.00 66 1014.5
20210619140028 79 234 3.0 8.0 0.00 0.00 0.00 68 1014.5
20210619135523 78 240 4.0 8.0 0.00 0.00 0.00 67 1014.5
20210619135024 78 227 4.0 7.0 0.00 0.00 0.00 69 1014.4
20210619134523 78 261 3.0 7.0 0.00 0.00 0.00 66 1014.3